This demonstration page uses our WeatherBlox Daily Observations layout. Learn more.

Left ArrowRight Arrow

40.92501, -98.34201

Hourly Observations for August 26, 2020

Temp ( °F °C ) Dew Point ( °F °C ) Humidity (%) Winds ( mph kmh ) Pressure ( in mb ) Visibility ( mi km ) Precip ( " mm )
12:53 am 00:53 Clear 74 23.3 56 13.3 54 54 S 14 22 29.90 1013 10 16 0.00 0.00
1:53 am 01:53 Clear 74 23.3 55 12.8 52 52 S 14 22 29.89 1012 10 16 0.00 0.00
2:53 am 02:53 Clear 76 24.4 56 13.3 50 50 S 13 20 29.88 1012 10 16 0.00 0.00
3:53 am 03:53 Clear 72 22.2 57 13.9 59 59 S 12 19 29.89 1012 10 16 0.00 0.00
4:53 am 04:53 Clear 73 22.8 57 13.9 57 57 SSW 14 22 29.88 1012 10 16 0.00 0.00
5:53 am 05:53 Clear 72 22.2 57 13.9 59 59 SSW 14 22 29.89 1012 10 16 0.00 0.00
6:53 am 06:53 Clear 71 21.7 58 14.4 63 63 S 14 22 29.88 1012 10 16 0.00 0.00
7:53 am 07:53 Sunny 71 21.7 59 15 66 66 S 14 22 29.88 1012 9 14 0.00 0.00
8:53 am 08:53 Sunny 77 25 58 14.4 52 52 SSW 17 28 29.88 1012 10 16 0.00 0.00
9:53 am 09:53 Sunny 81 27.2 59 15 47 47 SSW 17 28 29.86 1011 10 16 0.00 0.00
10:53 am 10:53 Sunny 85 29.4 61 16.1 45 45 SSW 15 24 29.86 1011 10 16 0.00 0.00
11:53 am 11:53 Sunny 88 31.1 60 15.6 39 39 S 20 31 29.84 1011 10 16 0.00 0.00
12:53 pm 12:53 Sunny 92 33.3 60 15.6 34 34 S 18 30 29.82 1010 10 16 0.00 0.00
1:53 pm 13:53 Sunny 93 33.9 57 13.9 30 30 SSW 20 31 29.82 1010 10 16 0.00 0.00
2:53 pm 14:53 Sunny 95 35 57 13.9 28 28 SSW 21 33 29.80 1009 10 16 0.00 0.00
3:53 pm 15:53 Sunny 95 35 57 13.9 28 28 S 18 30 29.79 1009 10 16 0.00 0.00
4:53 pm 16:53 Sunny 96 35.6 58 14.4 28 28 S 16 26 29.77 1008 10 16 0.00 0.00
5:53 pm 17:53 Sunny 93 33.9 60 15.6 33 33 S 15 24 29.77 1008 10 16 0.00 0.00
6:53 pm 18:53 Sunny 89 31.7 61 16.1 39 39 S 10 17 29.77 1008 10 16 0.00 0.00
7:53 pm 19:53 Sunny 85 29.4 60 15.6 43 43 SSE 9 15 29.77 1008 10 16 0.00 0.00
8:53 pm 20:53 Clear 81 27.2 61 16.1 51 51 S 12 19 29.77 1008 10 16 0.00 0.00
9:53 pm 21:53 Clear 79 26.1 61 16.1 54 54 S 10 17 29.78 1009 10 16 0.00 0.00
10:53 pm 22:53 Clear 77 25 61 16.1 58 58 S 12 19 29.80 1009 10 16 0.00 0.00
11:53 pm 23:53 Clear 75 23.9 60 15.6 60 60 S 9 15 29.80 1009 10 16 0.00 0.00

Powered by AerisWeather